TimeMDT,TemperatureF,Dew PointF,Humidity,Sea Level PressureIn,VisibilityMPH,Wind Direction,Wind SpeedMPH,Gust SpeedMPH,PrecipitationIn,Events,Conditions,WindDirDegrees,DateUTC
12:15 AM,50.9,-5.8,9,30.18,10.0,Calm,Calm,-,N/A,,Clear,0,2012-10-08 06:15:00
12:35 AM,48.9,-2.7,12,30.18,10.0,South,6.9,-,N/A,,Clear,190,2012-10-08 06:35:00
12:55 AM,48.6,1.0,14,30.18,10.0,Calm,Calm,-,N/A,,Clear,0,2012-10-08 06:55:00
1:15 AM,49.5,0.3,13,30.18,10.0,Calm,Calm,-,N/A,,Clear,0,2012-10-08 07:15:00
1:35 AM,48.6,-3.3,12,30.19,10.0,Calm,Calm,-,N/A,,Clear,0,2012-10-08 07:35:00
1:55 AM,48.6,-2.4,12,30.19,10.0,ESE,5.8,-,N/A,,Clear,110,2012-10-08 07:55:00
2:15 AM,47.1,-1.8,13,30.19,10.0,ENE,3.5,-,N/A,,Clear,60,2012-10-08 08:15:00
2:35 AM,45.7,0.1,15,30.19,10.0,Calm,Calm,-,N/A,,Clear,0,2012-10-08 08:35:00
2:55 AM,46.2,-0.0,15,30.18,10.0,Calm,Calm,-,N/A,,Clear,0,2012-10-08 08:55:00
3:15 AM,46.6,-1.7,13,30.18,10.0,Calm,Calm,-,N/A,,Clear,0,2012-10-08 09:15:00
3:35 AM,47.1,-2.2,13,30.18,10.0,NNE,4.6,-,N/A,,Clear,30,2012-10-08 09:35:00
3:55 AM,45.0,-2.0,14,30.18,10.0,Calm,Calm,-,N/A,,Clear,0,2012-10-08 09:55:00
4:15 AM,42.8,3.0,19,30.19,10.0,NNE,4.6,-,N/A,,Clear,20,2012-10-08 10:15:00
4:35 AM,43.9,5.0,20,30.19,10.0,North,3.5,-,N/A,,Clear,360,2012-10-08 10:35:00
4:55 AM,44.4,3.2,18,30.19,10.0,North,3.5,-,N/A,,Clear,350,2012-10-08 10:55:00
5:15 AM,45.0,1.9,17,30.20,10.0,NNW,4.6,-,N/A,,Clear,340,2012-10-08 11:15:00
5:35 AM,45.5,1.8,16,30.20,10.0,NW,3.5,-,N/A,,Clear,320,2012-10-08 11:35:00
5:55 AM,45.5,3.6,18,30.20,10.0,NW,3.5,-,N/A,,Clear,320,2012-10-08 11:55:00
6:15 AM,46.0,4.1,18,30.21,10.0,Calm,Calm,-,N/A,,Clear,0,2012-10-08 12:15:00
6:35 AM,46.0,3.6,17,30.21,10.0,Calm,Calm,-,N/A,,Clear,0,2012-10-08 12:35:00
6:55 AM,46.2,0.3,15,30.21,10.0,NW,4.6,-,N/A,,Clear,320,2012-10-08 12:55:00
7:15 AM,46.0,3.0,17,30.21,10.0,North,3.5,-,N/A,,Clear,350,2012-10-08 13:15:00
7:35 AM,46.4,5.4,19,30.21,10.0,Calm,Calm,-,N/A,,Clear,0,2012-10-08 13:35:00
7:55 AM,46.4,5.4,19,30.22,10.0,NNW,3.5,-,N/A,,Clear,340,2012-10-08 13:55:00
8:15 AM,47.5,5.2,18,30.22,10.0,NNW,3.5,-,N/A,,Clear,340,2012-10-08 14:15:00
8:35 AM,48.4,4.3,16,30.23,10.0,Calm,Calm,-,N/A,,Clear,0,2012-10-08 14:35:00
8:55 AM,48.9,4.3,16,30.23,10.0,Calm,Calm,-,N/A,,Clear,0,2012-10-08 14:55:00
9:15 AM,49.6,1.6,14,30.24,10.0,Calm,Calm,-,N/A,,Clear,0,2012-10-08 15:15:00
9:35 AM,50.9,5.2,16,30.24,10.0,Calm,Calm,-,N/A,,Clear,0,2012-10-08 15:35:00
9:55 AM,52.5,4.5,14,30.24,10.0,NE,3.5,-,N/A,,Clear,50,2012-10-08 15:55:00
10:15 AM,52.9,4.1,14,30.23,10.0,ENE,3.5,-,N/A,,Clear,70,2012-10-08 16:15:00
10:35 AM,53.8,1.9,12,30.23,10.0,NE,3.5,-,N/A,,Clear,50,2012-10-08 16:35:00
10:55 AM,54.9,-0.6,10,30.22,10.0,ENE,4.6,-,N/A,,Clear,70,2012-10-08 16:55:00
11:15 AM,56.3,3.0,12,30.21,10.0,East,4.6,-,N/A,,Clear,90,2012-10-08 17:15:00
11:35 AM,56.3,2.3,11,30.21,10.0,SE,4.6,-,N/A,,Clear,130,2012-10-08 17:35:00
11:55 AM,57.4,0.9,10,30.21,10.0,NE,4.6,-,N/A,,Clear,50,2012-10-08 17:55:00
12:15 PM,58.3,0.9,10,30.19,10.0,NE,4.6,-,N/A,,Clear,50,2012-10-08 18:15:00
12:35 PM,59.2,1.8,10,30.19,10.0,East,4.6,-,N/A,,Clear,90,2012-10-08 18:35:00
12:55 PM,60.8,3.2,10,30.17,10.0,East,5.8,-,N/A,,Clear,90,2012-10-08 18:55:00
1:15 PM,62.1,3.9,10,30.17,10.0,ENE,6.9,-,N/A,,Clear,70,2012-10-08 19:15:00
1:35 PM,63.3,6.1,10,30.16,10.0,SSE,6.9,-,N/A,,Clear,150,2012-10-08 19:35:00
1:55 PM,63.1,7.5,11,30.14,10.0,East,8.1,-,N/A,,Clear,80,2012-10-08 19:55:00
2:15 PM,64.0,8.8,11,30.14,10.0,ESE,4.6,-,N/A,,Clear,120,2012-10-08 20:15:00
2:35 PM,65.3,8.4,11,30.13,10.0,NNE,5.8,-,N/A,,Clear,30,2012-10-08 20:35:00
2:55 PM,66.2,8.1,10,30.13,10.0,ENE,5.8,-,N/A,,Clear,60,2012-10-08 20:55:00
3:15 PM,67.1,9.3,11,30.11,10.0,ENE,8.1,-,N/A,,Clear,60,2012-10-08 21:15:00
3:35 PM,67.6,9.1,10,30.11,10.0,East,9.2,-,N/A,,Clear,90,2012-10-08 21:35:00
3:55 PM,67.6,9.5,10,30.11,10.0,NE,5.8,-,N/A,,Clear,40,2012-10-08 21:55:00
4:15 PM,67.6,13.8,13,30.11,10.0,WNW,15.0,20.7,N/A,,Clear,300,2012-10-08 22:15:00
4:35 PM,67.3,14.0,13,30.11,10.0,NW,8.1,24.2,N/A,,Clear,310,2012-10-08 22:35:00
4:55 PM,67.1,16.0,14,30.12,10.0,WNW,12.7,21.9,N/A,,Clear,300,2012-10-08 22:55:00
5:15 PM,66.2,16.7,15,30.12,10.0,WNW,12.7,18.4,N/A,,Clear,300,2012-10-08 23:15:00
5:35 PM,65.7,16.7,15,30.11,10.0,WNW,9.2,18.4,N/A,,Clear,290,2012-10-08 23:35:00
5:55 PM,65.3,16.7,15,30.12,10.0,WNW,6.9,16.1,N/A,,Clear,300,2012-10-08 23:55:00
6:15 PM,64.8,17.2,16,30.13,10.0,West,5.8,-,N/A,,Clear,280,2012-10-09 00:15:00
6:35 PM,64.0,17.2,16,30.12,10.0,West,5.8,-,N/A,,Clear,260,2012-10-09 00:35:00
6:55 PM,63.5,17.6,17,30.13,10.0,WNW,3.5,-,N/A,,Clear,290,2012-10-09 00:55:00
7:15 PM,63.0,17.6,17,30.13,10.0,NW,3.5,-,N/A,,Clear,320,2012-10-09 01:15:00
7:35 PM,62.8,18.0,18,30.13,10.0,West,3.5,-,N/A,,Clear,280,2012-10-09 01:35:00
7:55 PM,62.1,18.1,18,30.13,10.0,West,3.5,-,N/A,,Clear,280,2012-10-09 01:55:00
8:15 PM,61.5,17.6,18,30.14,10.0,West,3.5,-,N/A,,Clear,280,2012-10-09 02:15:00
8:35 PM,61.0,18.0,19,30.14,10.0,West,4.6,-,N/A,,Clear,270,2012-10-09 02:35:00
8:55 PM,59.9,18.3,20,30.15,10.0,West,5.8,-,N/A,,Clear,270,2012-10-09 02:55:00
9:15 PM,59.0,18.7,21,30.15,10.0,WSW,4.6,-,N/A,,Clear,240,2012-10-09 03:15:00
9:55 PM,58.1,19.4,22,30.16,10.0,West,6.9,-,N/A,,Clear,270,2012-10-09 03:55:00
10:35 PM,57.6,18.9,22,30.16,10.0,WSW,6.9,-,N/A,,Clear,240,2012-10-09 04:35:00
11:15 PM,57.4,18.7,22,30.16,10.0,WSW,5.8,-,N/A,,Clear,240,2012-10-09 05:15:00
11:35 PM,57.7,18.7,22,30.16,10.0,SW,5.8,-,N/A,,Clear,230,2012-10-09 05:35:00
11:55 PM,57.6,19.0,22,30.15,10.0,SW,4.6,-,N/A,,Clear,220,2012-10-09 05:55:00